Centralia, IL

4:05 AM CDT on July 28, 2017 (GMT -0500)
Centralia Municipal

Weather History for KENL - November, 2012

Change the Weather History Date:

Saturday, November 17, 2012

  Actual Average (KSLO) Record (KSLO)
Temperature  
Mean Temperature 43 °F -  
Max Temperature 58 °F 55 °F 79 °F (1958)
Min Temperature 28 °F 34 °F 2 °F (1959)
Degree Days  
Heating Degree Days 22    
Moisture  
Dew Point 32 °F    
Average Humidity 75    
Maximum Humidity 94    
Minimum Humidity 36    
Precipitation  
Precipitation 0.00 in - - ()
Sea Level Pressure  
Sea Level Pressure 30.45 in    
Wind  
Wind Speed 1 mph (East)    
Max Wind Speed 9 mph    
Max Gust Speed -    
Visibility 8 miles    
Events      
Averages and records for this station are not official NWS values.
T = Trace of Precipitation, MM = Missing Value Source: NWS Daily Summary

Daily Weather History Graph

Daily Weather History Graph

Search for Another Location

Airport or City:

Trip Planner

Search our weather history database for the weather conditions in past years. The results will help you decide how hot, cold, wet, or windy it might be!

Date:

Astronomy

Nov. 17, 2012 Rise Set
Actual Time 6:40 AM CST 4:41 PM CST
Civil Twilight 6:12 AM CST 5:10 PM CST
Nautical Twilight 5:40 AM CST 5:42 PM CST
Astronomical Twilight 5:08 AM CST 6:13 PM CST
Moon 10:25 AM CST (11/17) 8:51 PM CST (11/17)
Length of Visible Light 10h 57m
Length of Day
10h 00m
Waxing Crescent, 20% of the Moon is Illuminated
Nov 17
Waxing Crescent
Nov 20
First Quarter
Nov 28
Full
Dec 6
Last Quarter
Dec 13
New

Hourly Weather History & Observations

Time (CST) Temp. Windchill Dew Point Humidity Pressure Visibility Wind Dir Wind Speed Gust Speed Precip Events Conditions
12:15 AM 32.0 °F - 30.4 °F 94% 30.46 in 7.0 mi Calm Calm - N/A   Clear
12:35 AM 31.8 °F - 29.7 °F 92% 30.46 in 7.0 mi Calm Calm - N/A   Clear
12:55 AM 31.1 °F 27.7 °F 29.3 °F 93% 30.46 in 7.0 mi East 3.5 mph - N/A   Clear
1:15 AM 30.7 °F - 28.9 °F 93% 30.46 in 5.0 mi Calm Calm - N/A   Clear
1:35 AM 30.9 °F - 28.9 °F 92% 30.46 in 7.0 mi Calm Calm - N/A   Clear
1:55 AM 31.5 °F - 29.3 °F 92% 30.46 in 7.0 mi Calm Calm - N/A   Clear
2:15 AM 31.1 °F - 29.1 °F 92% 30.46 in 7.0 mi Calm Calm - N/A   Clear
2:35 AM 30.7 °F - 28.8 °F 92% 30.46 in 7.0 mi Calm Calm - N/A   Clear
2:55 AM 31.1 °F - 28.8 °F 91% 30.46 in 7.0 mi Calm Calm - N/A   Clear
3:15 AM 31.1 °F - 29.1 °F 92% 30.46 in 5.0 mi Calm Calm - N/A   Clear
3:35 AM 30.2 °F - 28.4 °F 93% 30.47 in 7.0 mi Calm Calm - N/A   Clear
3:55 AM 30.0 °F - 28.4 °F 94% 30.47 in 5.0 mi Calm Calm - N/A   Clear
4:15 AM 30.0 °F - 28.4 °F 94% 30.47 in 5.0 mi Calm Calm - N/A   Clear
4:35 AM 29.8 °F - 28.2 °F 94% 30.47 in 4.0 mi Calm Calm - N/A   Clear
4:55 AM 29.7 °F - 28.2 °F 94% 30.48 in 4.0 mi Calm Calm - N/A   Clear
5:15 AM 29.1 °F - 27.5 °F 94% 30.48 in 4.0 mi Calm Calm - N/A   Clear
5:35 AM 29.3 °F - 27.7 °F 94% 30.48 in 4.0 mi Calm Calm - N/A   Clear
5:55 AM 28.9 °F - 27.3 °F 94% 30.48 in 4.0 mi Calm Calm - N/A   Clear
6:15 AM 29.3 °F - 27.5 °F 93% 30.48 in 4.0 mi Calm Calm - N/A   Clear
6:35 AM 29.1 °F - 27.3 °F 93% 30.49 in 5.0 mi Calm Calm - N/A   Clear
6:55 AM 29.3 °F - 27.3 °F 92% 30.49 in 4.0 mi Calm Calm - N/A   Clear
7:15 AM 29.7 °F - 27.9 °F 93% 30.50 in 3.0 mi Calm Calm - N/A   Clear
7:35 AM 31.1 °F - 29.3 °F 93% 30.51 in 3.0 mi Calm Calm - N/A   Clear
7:55 AM 32.2 °F - 30.6 °F 94% 30.52 in 4.0 mi Calm Calm - N/A   Clear
8:15 AM 35.6 °F - 32.4 °F 88% 30.52 in 4.0 mi Calm Calm - N/A   Clear
8:35 AM 39.0 °F - 33.3 °F 80% 30.53 in 5.0 mi Calm Calm - N/A   Haze
8:55 AM 40.6 °F - 33.4 °F 75% 30.53 in 5.0 mi Calm Calm - N/A   Haze
9:15 AM 42.8 °F 40.1 °F 34.7 °F 73% 30.53 in 7.0 mi ENE 4.6 mph - N/A   Clear
9:35 AM 44.6 °F 42.2 °F 35.6 °F 71% 30.53 in 7.0 mi ENE 4.6 mph - N/A   Clear
9:55 AM 47.1 °F - 36.0 °F 65% 30.53 in 10.0 mi East 3.5 mph - N/A   Clear
10:15 AM 48.6 °F - 36.5 °F 63% 30.52 in 10.0 mi East 5.8 mph - N/A   Clear
10:35 AM 50.0 °F - 36.7 °F 60% 30.52 in 10.0 mi ESE 4.6 mph - N/A   Clear
11:55 AM 54.0 °F - 34.7 °F 48% 30.47 in 10.0 mi ESE 5.8 mph - N/A   Clear
12:15 PM 54.5 °F - 34.5 °F 47% 30.46 in 10.0 mi SE 9.2 mph - N/A   Clear
12:35 PM 55.0 °F - 34.3 °F 46% 30.46 in 10.0 mi SE 6.9 mph - N/A   Clear
12:55 PM 56.1 °F - 34.7 °F 45% 30.45 in 10.0 mi SE 6.9 mph - N/A   Clear
1:15 PM 56.5 °F - 33.3 °F 42% 30.44 in 10.0 mi ENE 4.6 mph - N/A   Clear
1:35 PM 57.2 °F - 32.2 °F 39% 30.44 in 10.0 mi Calm Calm - N/A   Clear
1:55 PM 57.4 °F - 32.2 °F 39% 30.43 in 10.0 mi East 5.8 mph - N/A   Clear
2:15 PM 57.4 °F - 32.0 °F 38% 30.43 in 10.0 mi ENE 4.6 mph - N/A   Clear
2:35 PM 57.6 °F - 32.0 °F 38% 30.42 in 10.0 mi East 5.8 mph - N/A   Clear
2:55 PM 57.7 °F - 30.9 °F 36% 30.43 in 10.0 mi East 3.5 mph - N/A   Clear
3:15 PM 58.1 °F - 31.5 °F 36% 30.42 in 10.0 mi East 3.5 mph - N/A   Clear
3:35 PM 57.7 °F - 32.0 °F 38% 30.43 in 10.0 mi Calm Calm - N/A   Clear
3:55 PM 56.5 °F - 32.9 °F 41% 30.42 in 10.0 mi East 3.5 mph - N/A   Clear
4:15 PM 55.4 °F - 33.3 °F 43% 30.42 in 10.0 mi East 3.5 mph - N/A   Clear
4:35 PM 53.8 °F - 32.9 °F 45% 30.42 in 10.0 mi Calm Calm - N/A   Clear
4:55 PM 51.1 °F - 32.9 °F 50% 30.42 in 10.0 mi Calm Calm - N/A   Clear
5:15 PM 48.0 °F - 35.2 °F 61% 30.42 in 10.0 mi Calm Calm - N/A   Clear
5:35 PM 46.4 °F - 34.2 °F 62% 30.42 in 10.0 mi Calm Calm - N/A   Clear
5:55 PM 42.8 °F - 35.6 °F 76% 30.42 in 10.0 mi Calm Calm - N/A   Clear
6:15 PM 42.3 °F - 34.3 °F 74% 30.42 in 10.0 mi Calm Calm - N/A   Clear
6:35 PM 40.3 °F 38.2 °F 34.9 °F 81% 30.42 in 10.0 mi ENE 3.5 mph - N/A   Clear
6:55 PM 39.4 °F - 34.3 °F 82% 30.42 in 10.0 mi Calm Calm - N/A   Clear
7:15 PM 39.6 °F 37.4 °F 34.3 °F 82% 30.42 in 10.0 mi ENE 3.5 mph - N/A   Clear
7:35 PM 42.6 °F 39.0 °F 32.9 °F 68% 30.41 in 10.0 mi East 5.8 mph - N/A   Clear
7:55 PM 39.0 °F - 32.9 °F 79% 30.42 in 10.0 mi Calm Calm - N/A   Clear
8:15 PM 39.2 °F - 33.3 °F 79% 30.43 in 10.0 mi Calm Calm - N/A   Clear
8:35 PM 38.5 °F 35.0 °F 33.1 °F 81% 30.42 in 10.0 mi East 4.6 mph - N/A   Clear
8:55 PM 38.7 °F 35.2 °F 32.5 °F 79% 30.42 in 10.0 mi East 4.6 mph - N/A   Clear
9:15 PM 36.5 °F - 32.0 °F 84% 30.42 in 10.0 mi Calm Calm - N/A   Clear
9:35 PM 37.0 °F - 32.4 °F 83% 30.42 in 10.0 mi Calm Calm - N/A   Clear
9:55 PM 37.6 °F - 32.5 °F 82% 30.42 in 10.0 mi Calm Calm - N/A   Clear
10:15 PM 36.7 °F - 32.2 °F 84% 30.42 in 10.0 mi Calm Calm - N/A   Clear
10:35 PM 37.0 °F - 32.0 °F 82% 30.43 in 10.0 mi Calm Calm - N/A   Clear
10:55 PM 34.5 °F - 31.6 °F 89% 30.42 in 10.0 mi Calm Calm - N/A   Clear
11:15 PM 34.2 °F - 32.0 °F 92% 30.42 in 10.0 mi Calm Calm - N/A   Clear
11:35 PM 33.3 °F - 31.6 °F 94% 30.42 in 7.0 mi Calm Calm - N/A   Clear
11:55 PM 32.9 °F - 31.3 °F 94% 30.42 in 10.0 mi Calm Calm - N/A   Clear